Change the Weather History Date:

Tuesday, April 29, 2014

  Actual Average Record
Temperature  
Mean Temperature 50 °F -  
Max Temperature 51 °F 69 °F 89 °F (1974)
Min Temperature 48 °F 45 °F 35 °F (1949)
Degree Days  
Heating Degree Days 16    
Moisture  
Dew Point 49 °F    
Average Humidity 98    
Maximum Humidity 100    
Minimum Humidity 82    
Precipitation  
Precipitation 0.16 in - - ()
Sea Level Pressure  
Sea Level Pressure 30.18 in    
Wind  
Wind Speed 8 mph (ESE)    
Max Wind Speed 20 mph    
Max Gust Speed 26 mph    
Visibility 8 miles    
Events Rain    
Averages and records for this station are not official NWS values.
T = Trace of Precipitation, MM = Missing Value Source: NWS Daily Summary

Daily Weather History Graph

Daily Weather History Graph

Search for Another Location

Airport or City:

Trip Planner

Search our weather history database for the weather conditions in past years. The results will help you decide how hot, cold, wet, or windy it might be!

Date:

Astronomy

Apr. 29, 2014 Rise Set
Actual Time 6:09 AM EDT 7:54 PM EDT
Civil Twilight 5:40 AM EDT 8:23 PM EDT
Nautical Twilight 5:06 AM EDT 8:58 PM EDT
Astronomical Twilight 4:29 AM EDT 9:35 PM EDT
Moon 6:25 AM EDT (4/29) 8:32 PM EDT (4/29)
Length of Visible Light 14h 42m
Length of Day
13h 45m
New Moon, 0% of the Moon is Illuminated
Apr 29
New Moon
May 6
First Quarter
May 14
Full
May 21
Last Quarter
May 28
New

Hourly Weather History & Observations

Time (EDT) Temp. Dew Point Humidity Pressure Visibility Wind Dir Wind Speed Gust Speed Precip Events Conditions
12:19 AM 48.2 °F 48.2 °F 100% 30.13 in 5.0 mi SE 5.8 mph - N/A Rain Rain
12:39 AM 48.2 °F 48.2 °F 100% 30.13 in 5.0 mi SE 4.6 mph - 0.01 in   Drizzle
12:59 AM 48.2 °F 48.2 °F 100% 30.13 in 5.0 mi ESE 4.6 mph - 0.01 in Rain Light Rain
1:19 AM 48.2 °F 48.2 °F 100% 30.13 in 4.0 mi SE 4.6 mph - N/A Rain Light Rain
1:39 AM 48.6 °F 48.6 °F 100% 30.13 in 5.0 mi ESE 3.5 mph - N/A Rain Light Rain
1:59 AM 48.6 °F 48.6 °F 100% 30.13 in 7.0 mi ESE 3.5 mph - N/A   Overcast
2:19 AM 48.7 °F 48.7 °F 100% 30.14 in 10.0 mi ESE 3.5 mph - N/A   Overcast
2:39 AM 48.2 °F 48.2 °F 100% 30.13 in 10.0 mi ESE 8.1 mph - N/A   Mostly Cloudy
2:59 AM 48.7 °F 48.7 °F 100% 30.13 in 10.0 mi SE 6.9 mph - N/A   Mostly Cloudy
3:19 AM 48.7 °F 48.7 °F 100% 30.14 in 10.0 mi SE 5.8 mph - N/A   Overcast
3:39 AM 48.6 °F 48.6 °F 100% 30.14 in 10.0 mi SE 5.8 mph - N/A   Overcast
3:59 AM 48.4 °F 48.4 °F 100% 30.14 in 10.0 mi SE 6.9 mph - N/A   Mostly Cloudy
4:19 AM 48.2 °F 48.2 °F 100% 30.14 in 10.0 mi SE 8.1 mph - N/A   Mostly Cloudy
4:39 AM 48.2 °F 48.2 °F 100% 30.15 in 10.0 mi SE 6.9 mph - N/A   Scattered Clouds
4:59 AM 48.2 °F 48.2 °F 100% 30.15 in 10.0 mi ESE 6.9 mph - N/A   Mostly Cloudy
5:19 AM 48.2 °F 48.2 °F 100% 30.15 in 10.0 mi East 8.1 mph - N/A   Overcast
5:39 AM 48.4 °F 48.4 °F 100% 30.15 in 10.0 mi East 8.1 mph - N/A   Mostly Cloudy
5:50 AM 48.2 °F 48.2 °F 100% 30.16 in 7.0 mi East 8.1 mph - N/A   Overcast
5:59 AM 48.6 °F 48.6 °F 100% 30.15 in 10.0 mi ESE 10.4 mph - N/A   Mostly Cloudy
6:19 AM 49.1 °F 49.1 °F 100% 30.17 in 10.0 mi East 9.2 mph - N/A   Overcast
6:24 AM 49.1 °F 49.1 °F 100% 30.16 in 10.0 mi East 10.4 mph - N/A   Mostly Cloudy
6:45 AM 50.0 °F 50.0 °F 100% 30.17 in 7.0 mi East 8.1 mph - N/A   Overcast
7:50 AM 50.0 °F 48.2 °F 94% 30.20 in 7.0 mi East 11.5 mph - N/A   Overcast
8:48 AM 50.0 °F 46.4 °F 87% 30.21 in 10.0 mi East 8.1 mph 18.4 mph N/A   Overcast
9:52 AM 51.8 °F 46.4 °F 82% 30.21 in 10.0 mi East 19.6 mph 25.3 mph N/A   Overcast
10:50 AM 50.0 °F 46.4 °F 87% 30.24 in 10.0 mi East 16.1 mph 23.0 mph N/A   Overcast
11:50 AM 50.0 °F 46.4 °F 87% 30.25 in 10.0 mi East 17.3 mph 23.0 mph N/A   Overcast
12:50 PM 50.0 °F 48.2 °F 94% 30.22 in 10.0 mi East 16.1 mph 26.5 mph N/A   Overcast
1:50 PM 50.0 °F 48.2 °F 94% 30.21 in 10.0 mi East 15.0 mph 23.0 mph N/A   Overcast
2:45 PM 50.0 °F 48.2 °F 94% 30.21 in 7.0 mi East 15.0 mph 21.9 mph N/A   Overcast
3:45 PM 50.0 °F 50.0 °F 100% 30.18 in 5.0 mi ESE 16.1 mph 26.5 mph N/A   Overcast
4:45 PM 50.0 °F 50.0 °F 100% 30.19 in 5.0 mi ESE 13.8 mph 25.3 mph N/A Rain Rain
5:15 PM 50.0 °F 50.0 °F 100% 30.25 in 2.0 mi North 4.6 mph - N/A Rain Heavy Rain
5:50 PM 50.0 °F 50.0 °F 100% 30.21 in 4.0 mi East 10.4 mph 17.3 mph N/A Rain Light Rain
6:50 PM 50.0 °F 50.0 °F 100% 30.22 in 4.0 mi East 15.0 mph 19.6 mph N/A Rain Light Rain
7:45 PM 50.0 °F 50.0 °F 100% 30.24 in 4.0 mi East 11.5 mph 16.1 mph N/A Rain Light Rain
8:45 PM 50.0 °F 50.0 °F 100% 30.24 in 7.0 mi East 13.8 mph 23.0 mph N/A   Overcast
10:41 PM 50.5 °F 50.5 °F 100% 30.21 in 5.0 mi ESE 16.1 mph 24.2 mph 0.08 in Rain Rain
11:01 PM 50.5 °F 50.5 °F 100% 30.22 in 4.0 mi ESE 13.8 mph 17.3 mph 0.01 in Rain Rain
11:21 PM 50.9 °F 50.9 °F 100% 30.22 in 7.0 mi ESE 12.7 mph 21.9 mph 0.06 in Rain Rain
11:41 PM 51.1 °F 51.1 °F 100% 30.22 in 4.0 mi ESE 15.0 mph 21.9 mph 0.07 in Rain Rain